This is the latest recevied weather packets stored in our database for station/object K5NWZ. If no packets are shown the sender has not sent any weather packets the latest 10 day(s).
| Time | Temp. | Humidity | Pressure | Rain* | Wind** | Luminosity | Snow |
|---|---|---|---|---|---|---|---|
| 1788117237 | 22.78° C | 55% | 1027 hPa | 0 mm | - | 160 W/m² | - |
| 1788116933 | 22.78° C | 53% | 1027.3 hPa | 0 mm | - | 197 W/m² | - |
| 1788116628 | 23.33° C | 46% | 1027.4 hPa | 0 mm | - | 181 W/m² | - |
| 1788116326 | 24.44° C | 41% | 1027.5 hPa | 0 mm | - | 85 W/m² | - |
| 1788116022 | 26.11° C | 39% | 1026.9 hPa | 0 mm | - | 73 W/m² | - |
| 1788115717 | 26.67° C | 39% | 1026.8 hPa | 0 mm | - | 66 W/m² | - |
| 1788115417 | 27.22° C | 37% | 1026.5 hPa | 0 mm | - | 116 W/m² | - |
| 1788115117 | 26.67° C | 37% | 1026.6 hPa | 0 mm | - | 229 W/m² | - |
| 1788114817 | 26.67° C | 37% | 1026.5 hPa | 0 mm | - | 325 W/m² | - |
| 1788114512 | 27.22° C | 37% | 1026.3 hPa | 0 mm | - | 553 W/m² | - |
| 1788114208 | 27.22° C | 37% | 1026.1 hPa | 0 mm | - | 441 W/m² | - |
| 1788113904 | 26.67° C | 38% | 1026.2 hPa | 0 mm | - | 473 W/m² | - |
| 1788113600 | 26.67° C | 39% | 1026.2 hPa | 0 mm | - | 554 W/m² | - |
| 1788113299 | 26.67° C | 40% | 1026.3 hPa | 0 mm | - | 487 W/m² | - |
| 1788112999 | 26.11° C | 38% | 1026.3 hPa | 0 mm | - | 439 W/m² | - |
| 1788112698 | 26.11° C | 41% | 1026.3 hPa | 0 mm | - | 412 W/m² | - |
| 1788112393 | 26.11° C | 40% | 1026.3 hPa | 0 mm | - | 407 W/m² | - |
| 1788112088 | 26.67° C | 40% | 1026.6 hPa | 0 mm | - | 319 W/m² | - |
| 1788111784 | 26.11° C | 40% | 1026.7 hPa | 0 mm | - | 472 W/m² | - |
| 1788111483 | 26.11° C | 41% | 1026.8 hPa | 0 mm | - | 352 W/m² | - |
| 1788111179 | 26.11° C | 39% | 1026.8 hPa | 0 mm | - | 495 W/m² | - |
| 1788110875 | 26.11° C | 40% | 1026.8 hPa | 0 mm | - | 368 W/m² | - |
| 1788110572 | 26.11° C | 40% | 1027 hPa | 0 mm | - | 623 W/m² | - |
| 1788110267 | 27.22° C | 40% | 1027 hPa | 0 mm | - | 541 W/m² | - |
| 1788109962 | 26.67° C | 38% | 1026.9 hPa | 0 mm | - | 737 W/m² | - |
* Rain latest hour (hover to see other rain measurements)
** Current wind speed in m/s (hover to see current wind gust speed)